{"data":{"norad_id":57355,"epoch":"2026-05-25T02:47:27.983040Z","epoch_age_seconds":60919,"freshness":"FRESH","line1":"1 57355U 23099AD  26145.11629610 -.00000471  00000+0 -75893-5 0  9992","line2":"2 57355  43.0028 170.4157 0001423 283.5742  76.4951 15.27577515157886","mean_motion":15.27577515,"eccentricity":0.0001423,"inclination_deg":43.0028,"raan_deg":170.4157,"arg_perigee_deg":283.5742,"mean_anomaly_deg":76.4951,"bstar":-7.5893e-6,"rev_number":15788,"period_min":94.266902062904,"perigee_km":482.08018919339,"apogee_km":484.03288487403,"semimajor_km":6861.1935370337,"source":"CELESTRAK","updated_at":"2026-05-25T13:38:18.291397Z"}}